CAPE
3 3 0 0 0 0 0 0 0 0 0 0 0 0 0 0 0 0 0 0 0 0 0 0 0 0 0 0 0 0 0 0 0 0 0 0 0 0 0 0 0 0 0 0
3 3 0 0 0 0 0 0 0 0 0 0 0 0 0 0 0 0 0 0 0 0 0 0 0 0 0 0 0 0 0 0 0 0 0 0 0 0 0 0 0 2 2 0
5 4 0 0 0 0 0 0 0 0 0 0 0 0 0 0 0 0 0 0 0 0 0 0 0 0 0 0 0 0 0 0 0 2 30 0 0 0 0 0 6 1 0 0
5 5 0 0 0 0 0 0 0 0 0 0 0 0 0 0 0 0 0 0 0 0 0 0 0 0 0 0 0 0 0 0 0 1 0 0 0 0 0 0 0 0 1 7
1 4 3 0 0 0 0 0 0 0 0 0 0 0 0 0 0 0 0 0 0 0 0 0 3 0 0 0 0 0 0 0 0 0 0 0 0 0 0 0 0 0 0 0
1 2 7 0 0 0 0 0 0 0 0 0 0 0 0 0 0 0 0 0 0 0 0 0 0 0 0 0 0 2 1 4 32 21 17 19 0 0 0 0 0 0 0 0
1 2 9 5 0 0 0 0 0 0 0 0 0 0 0 0 0 0 0 0 0 0 0 0 0 0 0 0 0 0 8 21 37 43 49 28 5 0 2 0 0 0 1 0
1 1 4 8 2 0 0 0 0 0 0 0 0 0 0 0 0 0 0 0 0 0 0 0 1 0 0 0 0 0 0 9 50 58 48 14 17 18 4 5 0 9 69 109
0 1 3 6 10 0 0 0 0 0 0 0 0 0 0 0 0 0 0 0 0 0 0 3 9 16 15 18 14 3 0 18 12 56 53 35 22 23 22 5 0 33 137 234
0 1 2 5 8 1 0 2 0 4 0 0 0 0 0 0 0 0 0 0 0 0 0 1 5 15 16 25 35 56 12 10 4 30 35 26 38 51 90 18 49 256 313 425
0 1 3 2 3 4 1 1 6 4 0 0 0 0 0 0 0 0 0 0 0 0 0 3 8 19 13 20 12 16 50 102 92 101 81 54 69 53 62 84 127 123 189 391
0 2 2 1 0 15 0 2 6 9 3 0 0 0 0 0 0 0 0 0 0 6 11 25 34 47 33 47 38 65 64 78 103 96 102 254 239 116 36 0 126 195 122 126
0 1 0 0 4 14 15 9 12 8 0 0 0 0 0 0 0 0 0 0 0 0 0 12 29 51 76 87 84 97 90 287 286 189 115 138 134 113 31 200 321 189 144 87
0 1 1 6 16 41 16 9 10 8 2 0 0 0 0 0 0 0 0 0 0 0 1 24 49 56 47 52 58 45 90 103 218 186 178 159 213 122 143 5 0 0 12 63
0 0 1 13 20 14 7 7 6 10 4 1 0 0 0 0 0 0 0 0 0 0 7 23 40 33 35 56 49 15 21 42 87 78 80 87 62 31 1 0 0 28 30 58
0 2 11 15 11 0 6 14 10 4 1 12 1 0 0 0 0 0 0 0 0 2 0 14 27 33 66 40 38 43 43 67 54 41 15 8 9 0 0 0 0 112 97 77
6 5 3 4 6 6 7 7 14 0 0 25 7 3 0 0 3 5 1 3 12 13 42 28 40 59 54 53 41 70 52 53 67 63 45 15 4 1 0 0 0 42 2 37
1 1 0 4 2 2 13 7 0 3 1 5 7 3 7 0 32 111 89 30 6 25 29 39 39 44 139 43 58 66 48 30 33 42 27 18 50 86 27 0 1 31 109 372
0 0 0 2 0 0 22 0 0 0 1 20 9 21 46 5 34 50 56 72 91 64 79 30 53 50 40 79 122 118 91 88 86 77 123 281 226 101 81 152 279 426 460 433
0 0 12 35 31 0 1 10 5 3 7 13 7 0 0 4 58 35 19 121 199 79 62 82 38 33 75 124 190 181 213 203 284 356 477 408 375 439 284 204 288 334 330 385
18 13 27 1 0 39 64 44 20 16 14 13 22 41 58 43 41 75 67 105 67 45 58 66 76 105 28 4 12 27 26 7 9 335 445 467 459 525 531 507 512 517 491 499
5 3 0 1 30 43 36 21 55 42 36 65 26 72 81 59 1 6 27 52 54 36 23 20 28 77 25 0 9 6 6 35 15 25 203 292 399 432 504 592 717 676 657 659
6 14 7 10 38 50 21 30 51 48 43 61 70 65 58 57 13 30 48 18 24 30 22 15 8 14 0 0 3 2 15 140 207 324 393 302 310 405 498 698 800 780 808 703
15 22 20 13 16 16 45 50 37 53 66 54 64 71 84 60 43 63 16 25 30 9 5 4 0 0 3 12 13 15 46 107 334 486 430 356 273 381 636 677 459 732 676 524
19 24 2 7 16 20 33 31 58 60 50 52 57 70 33 46 25 32 28 10 10 6 2 2 15 16 6 6 40 23 35 136 384 375 308 413 327 386 449 627 696 538 464 424
9 12 3 8 18 33 44 52 51 32 19 62 82 51 37 14 7 8 6 10 6 3 20 26 37 7 2 4 5 10 20 137 283 315 341 359 329 345 413 227 378 545 502 488
0 1 0 2 5 7 26 36 35 9 33 36 65 14 14 17 23 27 5 20 25 33 26 75 114 451 374 169 142 251 121 159 254 179 132 80 74 133 625 610 541 500 458 544
CIN
0 0 0 0 0 0 0 0 0 0 0 0 0 0 0 0 0 0 0 0 0 0 0 0 0 0 0 0 0 0 0 0 0 0 0 0 0 0 0 0 0 0 0 0
0 0 0 0 0 0 0 0 0 0 0 0 0 0 0 0 0 0 0 0 0 0 0 0 0 0 0 0 0 0 0 0 0 0 0 0 0 0 0 0 0 0 0 0
0 0 0 0 0 0 0 0 0 0 0 0 0 0 0 0 0 0 0 0 0 0 0 0 0 0 0 0 0 0 0 0 0 0 -1 -5 0 0 0 0 0 0 0 0
0 0 0 0 0 0 0 0 0 0 0 0 0 0 0 0 0 0 0 0 0 0 0 0 0 0 0 0 0 0 0 0 0 0 0 0 0 0 0 0 0 0 0 0
0 0 0 0 0 0 0 0 0 0 0 0 0 0 0 0 0 0 0 0 0 0 0 0 0 0 0 0 0 0 0 0 0 0 0 0 0 0 0 0 0 0 0 0
0 0 0 0 0 0 0 0 0 0 0 0 0 0 0 0 0 0 0 0 0 0 0 0 0 0 0 0 0 0 0 0 0 0 0 0 0 0 0 0 0 0 0 0
0 0 0 -1 0 0 0 0 0 0 0 0 0 0 0 0 0 0 0 0 0 0 0 0 0 0 0 0 0 0 0 -1 0 0 0 0 -1 0 0 0 0 0 0 0
0 0 0 0 -1 0 0 0 0 0 0 0 0 0 0 0 0 0 0 0 0 0 0 0 0 0 0 0 0 0 0 0 0 0 0 0 -1 -1 0 0 0 -6 -32 -47
0 0 0 0 -1 0 0 0 0 0 0 0 0 0 0 0 0 0 0 0 0 0 0 0 0 0 0 0 0 0 0 -1 0 0 0 0 0 -1 -2 -1 0 -9 -26 -55
0 0 0 0 0 -1 0 0 0 0 0 0 0 0 0 0 0 0 0 0 0 0 0 0 0 0 0 0 0 -1 0 -1 0 -1 0 0 0 -2 -18 -1 -3 -42 -54 -79
0 0 0 0 0 0 0 0 0 0 0 0 0 0 0 0 0 0 0 0 0 0 0 0 0 0 0 0 0 0 0 0 0 0 0 0 -13 -6 0 -23 -32 -60 -64 -68
0 0 0 0 0 0 -2 0 0 0 0 0 0 0 0 0 0 0 0 0 0 0 0 0 0 0 0 0 0 0 0 0 0 0 -1 -16 -23 -13 -36 0 -43 -36 -80 -86
0 0 0 0 -5 -5 -3 0 0 0 0 0 0 0 0 0 0 0 0 0 0 0 0 0 0 0 0 0 0 0 0 0 -1 0 0 -1 0 -11 -15 -1 -3 -33 -53 -94
0 0 0 0 0 -1 -6 0 0 0 0 0 0 0 0 0 0 0 0 0 0 0 0 0 0 0 -1 0 0 0 -4 -2 0 0 0 0 0 0 -2 -12 -3 0 -82 -67
0 0 0 0 0 -11 -5 0 0 0 0 0 0 0 0 0 0 0 0 0 0 0 0 0 0 -1 0 0 0 0 0 0 0 0 -1 0 -2 -2 -1 0 0 -70 -66 -67
0 0 0 0 -1 0 0 0 0 0 0 -1 0 0 0 0 0 0 0 0 0 -11 -5 -9 -2 0 0 0 0 0 -1 0 0 0 0 0 0 0 0 0 0 -41 -45 -56
0 0 0 0 0 0 0 0 0 0 0 0 0 0 0 0 -5 -45 -47 -52 -18 -5 -1 0 0 0 -2 0 0 0 0 -1 0 0 0 0 0 0 0 0 0 -44 -18 -60
0 0 0 0 0 0 0 -1 0 0 0 -2 0 0 0 0 0 0 -1 -15 -26 -2 0 0 0 0 -2 -2 0 0 0 0 0 0 -2 -4 0 -2 -9 0 -34 -63 -46 -5
0 0 0 0 0 0 0 0 0 0 0 0 0 0 0 -2 -1 0 0 0 0 0 0 0 0 -1 -4 -2 0 0 0 0 0 0 0 0 -2 0 0 0 -1 0 0 0
0 -1 0 0 -1 0 -4 0 0 0 0 0 0 0 0 0 0 0 -1 0 0 0 -1 0 -1 -5 0 -5 0 0 0 0 0 0 0 0 0 0 0 0 0 0 0 0
0 0 0 -4 0 0 0 0 -3 -4 -2 -1 -1 0 0 -1 0 0 -3 -1 0 0 0 0 0 0 0 -6 -4 -2 -5 -10 -18 0 0 0 0 0 0 0 0 0 0 0
0 0 0 0 0 0 0 -1 0 -1 -1 -2 -13 0 0 0 -7 -1 -1 -1 -1 0 -1 0 0 -2 -16 -9 0 0 -1 0 -30 -25 -2 -1 0 0 0 0 0 0 0 0
0 0 0 0 0 0 -1 -1 0 0 -2 -1 -1 0 0 0 -1 0 0 0 0 -1 0 0 0 -10 0 -1 0 0 -8 -2 -2 -2 0 0 0 0 0 0 0 0 0 0
0 0 -1 0 0 0 0 0 -1 0 0 0 0 0 -1 -1 0 -1 0 -1 -1 0 0 0 0 0 -1 -2 -1 -15 0 -1 0 0 0 0 -1 0 0 -1 -23 0 0 0
0 0 0 0 0 0 0 0 0 0 0 0 0 0 0 0 -1 -1 -1 0 0 0 0 -4 -8 -7 -25 -11 -2 -5 -3 -1 0 0 0 0 0 0 -2 -1 0 0 0 0
0 0 0 0 0 0 0 0 0 0 -2 0 0 0 0 0 0 0 0 0 0 0 -4 -8 -8 -24 -1 0 -25 -28 -9 -1 0 0 0 0 0 -2 -8 -29 -1 0 0 0
-1 0 0 0 0 0 0 0 0 -4 -1 0 0 -2 0 -1 -1 0 -1 0 -1 -4 -3 0 0 -1 0 0 -1 -1 -4 -3 0 -1 -15 -39 -54 -37 0 0 0 -1 0 0
Wind_Speed
19 21 23 25 27 32 8 5 4 3 4 7 3 7 3 1 4 4 4 6 8 9 6 12 12 10 6 3 7 10 18 10 13 17 13 6 14 14 20 13 17 12 10 12
19 21 22 23 24 22 8 6 3 3 5 6 7 2 5 4 5 4 3 5 4 2 8 7 9 5 6 3 10 8 9 10 12 15 13 13 12 16 14 14 15 17 15 10
18 19 21 23 25 22 6 5 3 4 3 2 7 4 7 7 3 4 4 6 6 7 10 8 4 10 7 2 3 4 4 14 11 13 7 6 5 9 11 15 16 15 17 20
17 18 20 22 25 25 6 3 5 4 2 4 4 5 2 6 6 4 3 5 5 5 8 10 12 8 8 8 7 5 8 13 14 14 18 15 13 15 15 15 14 18 19 19
16 17 18 20 25 30 2 6 5 2 4 4 6 5 5 8 7 6 8 9 3 6 9 7 9 5 7 11 11 11 10 14 12 15 16 18 21 18 19 18 18 18 17 21
15 16 16 17 20 19 4 3 1 6 3 3 5 2 4 2 2 5 6 5 9 10 4 7 9 9 11 8 9 10 10 11 10 16 15 15 20 17 20 22 20 17 18 17
12 14 14 14 14 15 4 4 5 5 3 4 4 3 3 6 5 9 5 7 8 7 10 12 11 12 12 12 12 11 10 11 12 14 15 23 13 19 8 13 16 17 17 15
10 12 13 12 11 12 5 3 4 4 6 5 8 6 7 7 7 10 11 11 6 9 10 10 12 12 15 17 16 16 14 12 13 15 16 17 15 5 10 13 14 5 7 11
8 10 11 11 10 10 7 3 4 4 7 4 4 6 4 8 7 7 7 3 6 7 8 10 13 12 9 9 14 10 17 15 13 15 19 22 14 13 11 11 17 5 4 5
7 8 9 10 10 9 8 2 5 3 5 3 5 4 6 3 5 6 4 2 5 7 9 11 12 13 11 15 16 8 11 13 17 17 18 21 14 1 3 14 4 4 5 6
6 7 8 8 8 8 7 3 3 6 5 9 8 9 9 6 5 7 6 7 7 6 9 8 7 7 9 11 16 16 16 14 14 15 19 23 4 6 13 9 7 6 7 7
6 7 7 7 7 7 5 2 1 4 6 7 10 12 13 13 13 7 4 6 4 5 5 2 4 6 7 10 12 9 14 15 12 12 7 6 5 3 4 9 7 6 8 9
5 6 7 7 8 8 6 4 4 6 6 8 7 4 6 9 15 14 8 5 5 4 5 7 5 6 6 9 9 12 8 7 8 13 13 16 7 7 8 2 4 8 11 11
6 7 9 9 9 9 6 6 4 4 5 5 3 5 5 4 8 10 13 14 3 4 5 7 7 7 3 9 13 12 10 6 10 15 16 16 14 12 3 12 14 12 10 12
6 8 9 9 10 7 7 6 4 5 6 6 7 14 1 4 4 11 11 12 12 7 5 6 8 7 8 10 13 12 13 16 14 14 14 13 13 16 16 16 14 14 12 13
8 9 9 9 7 6 6 3 2 3 2 3 5 5 3 3 4 7 9 9 8 7 5 5 9 14 10 8 13 15 12 13 15 16 17 18 18 19 17 17 16 15 15 12
10 9 9 9 6 6 4 5 3 4 2 3 5 3 4 2 4 3 3 6 5 6 7 7 12 11 6 12 17 20 18 16 17 17 17 20 20 17 19 16 17 12 16 16
10 10 8 6 5 8 5 2 11 5 4 3 4 4 4 3 4 3 6 5 7 8 8 9 8 8 4 8 13 8 7 5 8 8 7 13 15 14 14 16 15 17 16 14
11 11 7 5 5 2 2 6 6 6 3 4 3 5 4 5 5 5 4 5 6 3 7 9 5 7 8 10 8 8 6 8 12 15 17 15 16 18 15 13 14 15 14 12
8 6 5 3 3 5 6 5 2 3 4 4 5 1 3 5 3 2 4 4 4 4 3 1 6 10 15 6 10 12 12 12 14 14 16 13 13 14 17 17 15 15 14 13
3 1 1 2 2 3 3 2 3 3 4 5 5 5 8 4 5 3 2 4 3 3 3 4 3 1 6 8 11 9 12 11 16 16 17 16 14 14 14 14 14 13 14 14
5 5 4 3 3 2 3 3 3 5 3 2 3 4 5 2 1 1 2 4 2 3 4 2 4 2 8 14 15 16 15 18 15 15 17 18 16 14 14 13 15 14 14 12
3 3 2 1 2 2 4 4 3 2 2 1 5 6 3 1 1 3 2 3 2 2 3 2 5 9 12 15 13 13 12 13 14 17 16 14 13 11 13 14 14 13 11 11
3 2 2 5 5 5 3 0 2 3 4 7 5 6 2 2 2 1 3 2 3 2 3 5 6 11 14 14 11 11 13 13 13 14 11 11 10 12 9 10 10 8 9 9
3 3 4 6 4 3 3 4 4 3 4 6 7 2 1 1 2 2 3 3 3 2 4 6 9 16 16 14 13 10 11 11 10 10 9 10 9 5 8 8 8 6 5 6
3 4 5 5 5 6 4 3 3 3 5 4 3 2 1 1 1 2 2 3 3 5 6 9 10 15 16 12 11 11 11 11 11 9 9 9 7 6 5 3 5 5 5 4
3 5 6 7 7 6 6 4 3 4 5 5 3 3 2 2 4 2 2 3 9 10 12 10 14 14 12 10 10 10 7 11 9 8 7 5 4 5 5 3 2 6 6 6
Wind_Direction
349 348 348 346 346 339 319 293 225 80 280 224 251 239 218 26 228 205 241 272 275 261 219 227 234 213 229 148 193 201 220 233 239 239 245 283 287 227 224 229 235 233 276 283
350 349 349 346 348 357 316 332 335 126 270 250 211 163 225 277 249 225 252 247 247 242 253 246 247 225 102 184 208 197 169 223 246 239 215 217 236 235 247 258 257 260 264 269
351 351 349 347 345 351 291 291 253 145 206 316 295 255 235 242 195 258 282 295 252 240 231 224 236 230 167 155 234 335 229 252 236 273 285 14 228 229 251 266 254 253 247 259
354 353 353 350 346 342 286 351 60 11 344 137 293 258 333 253 234 226 240 214 273 284 259 229 226 241 187 200 146 215 254 247 258 255 276 278 259 271 271 264 266 266 276 278
356 355 356 356 349 333 308 335 334 324 288 269 262 167 230 261 252 264 246 263 265 283 266 305 314 270 242 241 178 236 231 264 272 269 262 266 266 259 262 257 261 260 267 266
355 358 -0 3 360 339 5 24 220 283 131 256 256 295 307 310 300 224 276 318 292 262 344 327 311 295 293 289 276 244 252 251 231 254 260 265 260 259 251 252 251 252 251 256
354 358 3 8 11 356 334 28 289 282 295 268 299 306 283 279 284 288 295 298 281 27 321 287 249 258 257 253 252 248 254 242 260 266 273 254 263 269 247 285 282 269 270 271
353 357 2 9 10 357 338 0 314 315 289 327 274 274 282 274 257 247 261 272 308 313 290 274 255 246 242 244 238 244 243 250 254 252 250 261 248 246 253 267 272 199 288 297
348 349 354 2 8 357 314 25 316 295 304 89 346 294 279 294 286 261 224 211 280 273 261 242 243 240 250 245 225 244 253 225 251 244 256 256 277 286 277 284 256 276 308 297
340 343 342 351 0 359 320 45 345 290 276 286 271 255 320 310 275 278 256 317 233 233 242 241 243 246 252 251 249 193 208 233 234 237 252 261 260 175 323 237 291 24 349 343
329 335 337 339 350 357 317 24 9 316 288 295 260 263 262 240 242 274 58 256 185 238 245 253 249 241 252 244 253 259 251 241 234 233 252 253 128 188 239 3 318 341 333 334
323 331 333 335 337 344 306 286 150 308 258 301 320 277 279 268 275 302 215 335 327 339 273 247 300 242 249 253 262 213 247 259 273 271 256 65 60 353 324 305 306 320 328 325
314 319 320 323 320 315 312 313 321 271 267 265 236 213 193 227 238 252 263 244 279 232 357 317 292 271 296 268 250 278 256 259 266 276 263 266 242 284 288 328 319 319 314 324
312 316 318 318 320 311 296 291 306 278 283 286 90 164 246 244 219 217 231 257 212 300 281 270 265 267 262 279 295 281 275 324 265 256 255 282 265 264 294 310 298 294 295 305
304 308 311 314 317 322 277 272 263 252 288 326 311 302 96 191 202 224 224 225 240 262 269 252 264 291 295 267 264 260 257 259 252 259 272 287 285 294 292 290 287 284 281 295
298 299 301 307 315 307 277 207 149 205 210 283 291 18 224 240 214 218 212 215 224 231 211 240 240 250 258 270 268 277 272 257 264 270 268 272 277 268 273 273 273 279 266 283
301 305 298 293 287 274 295 4 15 97 92 247 285 260 125 269 234 184 216 221 225 247 249 247 258 263 224 262 265 273 272 263 253 256 260 265 264 267 269 261 267 265 270 266
303 300 300 288 262 260 242 103 185 205 265 262 291 289 233 6 266 217 191 185 206 208 248 250 253 259 234 257 261 273 296 270 270 258 250 269 287 276 275 260 255 258 260 257
298 290 276 231 220 198 86 46 132 204 298 304 282 306 0 347 312 291 236 233 244 207 231 239 252 225 219 247 276 296 306 295 290 286 280 273 249 255 254 247 243 247 254 261
292 242 222 176 85 339 168 191 183 178 207 227 262 47 265 275 308 286 295 235 233 237 199 263 244 253 251 324 2 328 311 322 303 279 275 276 268 260 253 254 252 258 264 270
232 283 351 63 196 213 229 243 216 154 229 213 234 270 300 178 288 299 274 312 310 268 50 291 276 261 12 321 307 298 292 292 294 288 280 280 273 272 268 267 263 261 258 259
359 325 280 250 222 240 261 234 185 213 252 193 235 304 280 325 233 277 287 282 299 278 343 283 281 319 278 290 289 293 288 283 280 273 268 266 269 263 266 265 267 261 259 252
199 236 259 270 184 259 233 199 179 225 267 272 289 302 265 124 130 260 278 308 286 341 238 244 239 265 283 295 302 289 288 284 274 267 268 270 275 276 270 267 264 256 244 233
252 213 251 231 188 242 261 95 330 305 310 321 317 293 252 154 243 316 263 268 292 319 288 257 270 299 297 305 311 300 302 308 294 287 289 292 281 267 278 283 277 238 229 228
267 253 245 226 258 266 254 294 275 268 322 302 293 274 340 340 303 293 299 318 310 268 255 274 293 300 309 309 310 304 307 311 306 305 301 293 291 301 273 252 224 211 215 218
265 244 255 237 257 240 216 252 300 3 316 287 272 324 354 37 299 277 287 303 265 264 270 292 299 294 296 302 303 306 304 309 314 324 306 313 302 289 304 303 265 202 211 210
233 232 234 271 289 282 288 294 295 319 305 351 319 0 360 292 250 266 172 254 293 298 298 308 301 305 311 318 315 316 324 322 337 338 334 309 283 249 208 219 235 260 252 243